DELTA 1 DEB, 40764

Orbit data source: Space-Track

DELTA 1 DEB, 40764 is space debris in SSO originally from a launch on Thu, 29 Jul 1976 UTC launched from the Air Force Western Test Range (AFWTR). Debris objects in space refer to the collection of defunct objects orbiting the Earth. Examples of debris include non-operational satellites, rocket bodies, and fragments generated from explosions, collisions, or faulty payload assembly.

Loading next visibility...
Identifier
40764, 1976-077GH
Orbit
SSO
Country
Flag of USUS
Related business
Manufacturer
Unknown
Mission
Spacecraft
Bus & Motor
Unknown
Mass
Unknown
Launch date (UTC)
1976-07-29 (50 years ago)
Launch vehicle
Unknown
Launch site
Air Force Western Test Range (AFWTR)
Object type
Payload
Rocket body
Debris
Shape & HBR
Unknown shape, 0.1 m
Radar Cross Section
Small (<0.1 m²)

Expand to show TLE details & history
Last TLE update: 5 days ago

TLE from 5 days ago
0 DELTA 1 DEB
1 40764U 76077GH  26123.23902617 -.00000014  00000-0  23539-3 0  9993
2 40764 102.2004 105.5328 0001403 116.0357 244.0851 12.40721135896257
Epoch: 2026-05-03T05:44Z
TLE epoch observation values (Epoch: 2026-05-03T05:44:11.861Z)
Latitude
0.00003°
Longitude
158.33794°
Altitude
1,506.573 km
Speed
7.111 km/s
True Right ascension
07h 02m 07s
True Declination
0° 00' 00"
Sunlit
Object was in daylight at epoch
Visualization orbit readout
Latitude
Unknown
Longitude
Unknown
Altitude
Unknown
Speed
Unknown
Apparent Right ascension
Unknown
Apparent Declination
Unknown
Sunlit
N/A
Visualization observer readout
Local Sidereal Time
12:15:49
Azimuth
Unknown
Elevation
Unknown
Doppler factor
Unknown
Orbital elements
Apogee altitude
1,502.239 km
Perigee altitude
1,500.028 km
Semi-major axis
7,879.27 km
Eccentricity
0.00014
Inclination
102.2004°
RAAN
105.5328°
Arg. of periapsis
116.0357°
True anomaly
244.07064°
Mean anomaly
244.0851°
Eccentric anomaly
244.07787°
Mean motion
3.10323 °/min
Orbital period
116.01 mins
BSTAR
0.00023539
Loading maneuver chart data...
Computing Atmospheric mass density...
Loading historical data...
Loading historical data...
Loading historical data...
Loading historical data...
Loading historical data...
Loading historical data...
Loading historical data...

Documentation

Showing up to 5 results
|